Location: Hoog-Buurlo
(52.1787°N, 5.8461°E)
Time: 00:12:14
(UTC+00:00)

Daily predictions for brighter satellites

Satellite Brightness Start Highest point End
(mag) Time Altitude Azimuth Time Altitude Azimuth Time Altitude Azimuth
OPS 8737 3.9 00:01:02 10° NW 00:04:06 86° SW 00:05:59 21° SE
Cosmos 1328 3.5 00:02:26 28° S 00:04:14 87° E 00:07:52 10° NNE
Cosmos 2082 Rocket 4.1 00:02:26 10° NNW 00:07:23 29° NE 00:12:21 10° E
Cosmos 2278 Rocket 4.1 00:11:21 10° SE 00:15:05 18° E 00:18:50 10° ENE
Cosmos 1300 Rocket 4.4 00:13:58 10° NNW 00:18:05 39° W 00:20:33 21° SSW
SJ 16-02 1.3 00:15:31 22° SSW 00:18:15 86° WNW 00:22:36 10° NNE
USA 229 DEB 4.1 00:11:24 10° NW 00:18:42 78° NE 00:26:46 10° SE
USA 229 4.1 00:11:31 10° NW 00:18:48 78° NE 00:26:51 10° SE
CZ-2C R/B 2.7 00:14:32 15° SSE 00:18:55 75° ENE 00:24:16 10° NNW
Cosmos 2151 Rocket 4.2 00:16:33 10° N 00:20:53 51° ENE 00:24:39 13° SSE
Cosmos 1943 Rocket 4.1 00:18:04 10° SE 00:21:37 18° E 00:25:11 10° ENE
Cosmos 371 Rocket 3.7 00:19:30 21° S 00:22:32 54° ESE 00:27:16 10° NNE
NOSS 2-1 (C) 4.2 00:19:49 10° WNW 00:23:01 30° SW 00:24:43 23° SSW
Okean 2 Rocket 4.0 00:19:27 10° N 00:23:48 46° ENE 00:27:50 11° SSE
USA 307 2.5 00:20:43 15° WSW 00:23:50 71° SSE 00:27:48 10° ENE
NOSS 2-1 (E) 4.2 00:23:27 10° WNW 00:26:43 31° SW 00:28:37 22° S
Cosmos 676 Rocket 4.3 00:24:48 16° SW 00:28:58 62° WNW 00:34:10 10° NNE
Cosmos 1741 Rocket 4.3 00:26:35 20° S 00:30:10 60° ESE 00:35:25 10° NNE
TIMED 4.5 00:27:33 21° SSW 00:30:22 77° WNW 00:34:41 10° NNE
Okean 1 Rocket 4.0 00:29:38 10° N 00:33:57 45° ENE 00:38:13 10° SSE
Cosmos 375 4.4 00:30:43 10° NW 00:35:29 84° SW 00:39:22 10° SE
Cosmos 1025 Rocket 4.3 00:37:03 12° SSE 00:40:24 32° E 00:44:12 10° NNE
Cosmos 1844 Rocket 3.9 00:37:24 10° WSW 00:42:39 38° NW 00:47:57 10° NNE
Nadezhda 4 Rocket 4.3 00:38:07 15° S 00:43:14 61° E 00:49:24 10° NNE
Cosmos 1378 Rocket 3.7 00:40:25 20° S 00:43:27 71° E 00:47:49 10° NNE
USA 234 3.3 00:38:39 10° ENE 00:45:09 64° SE 00:51:09 12° SW
EO 1 Delta rocket 4.5 00:43:14 16° S 00:48:42 72° W 00:54:03 10° NNW
Cosmos 1340 Rocket 2.7 00:45:17 10° NNW 00:49:09 85° ENE 00:52:07 17° SSE
ADEOS II 4.5 00:50:25 10° NE 00:53:06 14° E 00:55:47 10° ESE
USA 59 Rocket 1.6 00:50:43 10° W 00:53:24 18° WSW 00:54:17 17° SW
Cosmos 158 Rocket 4.1 00:48:40 10° NNW 00:53:48 73° ENE 00:58:47 10° SSE
Cosmos 1606 3.9 00:52:14 10° NW 00:54:35 20° W 00:55:43 17° WSW
ATLAS 3B R/B 3.0 00:54:01 10° NW 01:01:49 64° SW 01:09:18 10° SSE
Nimbus 7 Rocket 4.5 00:57:28 10° NNE 01:03:25 82° ESE 01:08:22 16° SSW
Cosmos 304 Rocket 3.8 01:00:52 17° SSW 01:04:29 73° WNW 01:09:16 10° NNE
MOZ.5/SAFIR/RUBIN 5/SL-8 4.1 01:03:47 10° SSE 01:08:19 65° ENE 01:12:53 10° N
SOZ 4.0 01:06:58 15° WSW 01:08:35 73° S 01:11:24 10° E
H-2A R/B 3.1 01:06:40 19° SSW 01:08:38 32° W 01:11:56 10° NNW
H-2A R/B 3.2 01:09:49 10° NNE 01:13:28 33° E 01:17:05 10° SSE
Cosmos 1869 3.5 01:12:25 10° NNW 01:16:01 49° W 01:18:36 17° SSW
Cosmos 1814 Rocket 4.3 01:11:21 10° NNW 01:16:31 51° WSW 01:21:15 12° S
Cosmos 1850 Rocket 4.3 01:12:44 15° SW 01:17:03 61° WNW 01:22:11 10° NNE
USA 305 1.0 01:14:40 10° WNW 01:17:16 79° NNE 01:18:56 10° ESE
IDEFIX/ARIANE 42P 2.9 01:12:13 10° NNE 01:17:26 62° ESE 01:22:10 12° S
SL-24 R/B - RUBIN 2 4.2 01:13:40 10° NW 01:18:18 40° WSW 01:22:27 10° S
SeaSat 1 4.5 01:17:22 10° WSW 01:19:00 12° W 01:20:39 10° W
ATLAS 2AS CENTAUR R/B 3.0 01:12:59 10° WSW 01:20:04 69° NW 01:26:58 10° NE
Cosmos 1455 Rocket 3.5 01:15:52 10° N 01:20:12 60° ENE 01:24:28 10° SSE
Cosmos 1833 Rocket 3.4 01:16:23 10° NW 01:21:27 35° WSW 01:25:45 14° SSW
Cosmos 2221 Rocket 3.6 01:21:46 15° SSW 01:25:20 83° W 01:29:48 10° N
Cosmos 1812 2.5 01:24:11 10° N 01:27:22 65° ENE 01:30:31 10° SSE
MSX 4.0 01:23:13 10° NNE 01:28:58 71° ESE 01:34:26 11° S
NPP 3.9 01:27:27 10° NNE 01:32:52 70° ESE 01:38:05 11° S
CZ-2C R/B 3.7 01:28:39 10° N 01:33:56 49° WNW 01:38:34 12° SW
Sich 1 Rocket 4.1 01:31:40 10° NNW 01:35:53 44° W 01:39:38 13° SSW
Meteor 1-11 4.3 01:31:27 12° S 01:36:48 88° ESE 01:42:40 10° NNE
Cosmos 2228 4.2 01:37:24 10° N 01:41:21 41° ENE 01:45:15 10° SE
SL-4 R/B 1.8 01:37:27 10° W 01:41:27 79° S 01:45:15 10° ESE
Cosmos 1674 Rocket 4.2 01:38:17 13° SW 01:41:48 43° WNW 01:45:58 10° N
Cosmos 332 Rocket 3.8 01:37:42 13° SSW 01:42:00 85° ESE 01:46:51 10° NNE
COSMOS 2406 3.7 01:36:43 10° NNW 01:42:29 68° NE 01:48:12 10° SE
Cosmos 968 Rocket 4.5 01:38:05 10° WSW 01:42:58 39° NW 01:47:55 10° NNE
Resurs 1-4 Rocket 2.7 01:43:21 10° NNE 01:48:31 52° E 01:53:38 10° S
Cosmos 1666 3.7 01:50:47 10° ESE 01:51:30 12° E 01:52:14 10° ENE
Cosmos 2082 Rocket 2.2 01:46:19 10° NNW 01:52:01 74° WSW 01:57:42 10° SSE
USA 307 3.0 01:50:06 10° W 01:54:03 66° N 01:57:53 10° E
SJ 16-02 3.6 01:54:27 10° W 01:57:07 16° NW 01:59:48 10° N
Cosmos 2278 Rocket 2.3 01:52:55 11° SSW 01:58:23 90° WNW 02:04:06 10° NNE
Cosmos 2098 Rocket 2.7 01:55:26 10° N 01:59:26 79° ENE 02:02:46 10° SSE
Timation 2 Rocket 4.2 01:53:48 10° SW 01:59:44 63° NW 02:05:42 10° NNE
CZ-2C R/B 4.1 01:55:59 10° SW 01:59:46 20° W 02:03:37 10° NW
Okean 2 Rocket 4.5 01:57:56 10° NW 02:01:30 24° W 02:05:03 10° SW
CZ-2D R/B 2.5 01:57:28 10° NNE 02:02:52 63° ESE 02:08:10 10° S
Cosmos 1544 Rocket 4.2 01:59:54 10° N 02:04:10 55° ENE 02:08:22 10° SSE
Cosmos 1943 Rocket 2.2 01:59:08 10° SSW 02:04:34 90° WNW 02:10:09 10° NNE
ALOS 3.2 02:00:51 10° NNE 02:05:15 44° E 02:09:37 10° S
SL-16 R/B 3.4 02:00:26 10° SE 02:06:27 55° ENE 02:12:32 10° N
Okean 1 Rocket 4.4 02:07:54 10° NNW 02:11:29 24° W 02:15:03 10° SW
Cosmos 1025 Rocket 4.1 02:14:04 10° SW 02:17:51 31° WNW 02:21:40 10° N
Cosmos 1553 Rocket 4.0 02:15:53 10° NNW 02:21:57 71° W 02:28:00 10° S
USA 234 3.6 02:21:47 10° ENE 02:28:16 69° NNW 02:34:46 10° W
NOAA 11 4.5 02:26:18 10° NNE 02:31:50 73° ESE 02:37:18 10° S
Cosmos 1092 Rocket 4.5 02:26:56 10° SSW 02:32:59 49° WNW 02:39:09 10° N
